EW0727 Weather Reports


time (UTC)temp
F
wind
direction
speed
knots
gust
knots
rain 1hr
in
rain 24hr
in
rain mn
in
humidity
%
barometer
mb
20260504081533 49 215 0.0 0.0 0.00 0.00 0.00 63 1016.2
20260504050015 48 193 0.0 0.0 0.00 0.00 0.00 70 1016.2
20260504044515 47 210 0.0 0.0 0.00 0.00 0.00 72 1016.2
20260504043011 47 211 0.0 0.0 0.00 0.00 0.00 72 1016.2
20260504041508 46 211 0.0 0.0 0.00 0.00 0.00 73 1016.0
20260504040004 46 211 0.0 0.0 0.00 0.00 0.00 72 1016.1
20260504034504 45 211 0.0 0.0 0.00 0.00 0.00 73 1016.2
20260504033003 44 211 0.0 0.0 0.00 0.00 0.00 74 1016.2
20260504031503 44 211 0.0 0.0 0.00 0.00 0.00 74 1016.2
20260504030001 44 211 0.0 0.0 0.00 0.00 0.00 74 1016.2
20260504024501 45 211 0.0 0.0 0.00 0.00 0.00 73 1016.1
20260504023102 45 210 0.0 0.0 0.00 0.00 0.00 68 1016.2
20260504021600 46 211 0.0 0.0 0.00 0.00 0.00 71 1016.1
20260504020059 47 211 0.0 0.0 0.00 0.00 0.00 66 1016.0
20260504014603 46 211 0.0 0.0 0.00 0.00 0.00 67 1015.9
20260504013112 47 211 0.0 0.0 0.00 0.00 0.00 64 1015.8
20260504011559 48 211 0.0 0.0 0.00 0.00 0.00 64 1015.6
20260504010114 49 211 0.0 0.0 0.00 0.00 0.00 57 1015.6
20260504004557 50 211 0.0 0.0 0.00 0.00 0.00 57 1015.4
20260504003056 52 210 0.0 0.0 0.00 0.00 0.00 51 1015.2
20260504001602 54 210 0.0 0.0 0.00 0.00 0.00 45 1015.3
20260504000058 56 211 0.0 0.0 0.00 0.00 0.00 38 1015.2
20260503234555 59 211 0.0 0.9 0.00 0.00 0.00 34 1015.0
20260503233101 63 210 0.0 0.9 0.00 0.00 0.00 31 1014.9
20260503231554 65 210 0.0 0.0 0.00 0.00 0.00 29 1014.8
20260503230055 65 280 0.0 1.7 0.00 0.00 0.00 28 1014.7
20260503224553 65 210 0.0 1.7 0.00 0.00 0.00 28 1014.8
20260503223053 65 249 0.0 2.6 0.00 0.00 0.00 28 1015.0
20260503221559 65 290 0.0 2.6 0.00 0.00 0.00 28 1014.9
20260503214551 65 229 0.9 5.2 0.00 0.00 0.00 27 1015.0
20260503213050 65 273 0.0 4.3 0.00 0.00 0.00 28 1015.0
20260503211549 65 13 1.7 5.2 0.00 0.00 0.00 28 1015.1
20260503210054 65 312 1.7 5.2 0.00 0.00 0.00 27 1015.1
20260503204558 64 352 1.7 7.8 0.00 0.00 0.00 29 1015.2
20260503203049 64 328 1.7 5.2 0.00 0.00 0.00 28 1015.3
20260503201544 63 84 2.6 6.1 0.00 0.00 0.00 29 1015.6
20260503200046 64 337 5.2 10.4 0.00 0.00 0.00 28 1015.9
20260503194543 62 224 0.0 7.0 0.00 0.00 0.00 31 1016.1
20260503193042 62 19 2.6 9.6 0.00 0.00 0.00 30 1016.4
20260503191543 62 128 0.9 7.0 0.00 0.00 0.00 31 1016.4
20260503190045 62 51 1.7 7.8 0.00 0.00 0.00 31 1016.8
20260503184537 62 332 2.6 4.3 0.00 0.00 0.00 31 1017.0
20260503183035 61 82 2.6 5.2 0.00 0.00 0.00 31 1017.1
20260503181534 61 255 0.9 5.2 0.00 0.00 0.00 31 1017.2
20260503180030 59 295 1.7 5.2 0.00 0.00 0.00 33 1017.2
20260503174530 58 103 0.9 6.1 0.00 0.00 0.00 34 1017.2
20260503173039 58 290 1.7 7.0 0.00 0.00 0.00 33 1017.4
20260503171527 57 330 5.2 10.4 0.00 0.00 0.00 34 1017.6